Time,TemperatureF,DewpointF,PressureIn,WindDirection,WindDirectionDegrees,WindSpeedMPH,WindSpeedGustMPH,Humidity,HourlyPrecipIn,Conditions,Clouds,dailyrainin,SoftwareType,DateUTC
2013-04-05 00:03:00,42.0,24.0,30.06,SSW,204,4.0,6.0,49,0.00,,,0.00,,2013-04-05 04:03:00,
2013-04-05 00:13:00,42.0,24.0,30.06,SSW,204,4.0,6.0,49,0.00,,,0.00,,2013-04-05 04:13:00,
2013-04-05 00:23:00,41.0,27.0,30.04,SSW,207,2.0,5.0,57,0.00,,,0.00,,2013-04-05 04:23:00,
2013-04-05 00:33:00,40.0,28.0,30.04,SSW,211,2.0,5.0,61,0.00,,,0.00,,2013-04-05 04:33:00,
2013-04-05 00:42:00,40.0,28.0,30.04,SSW,211,2.0,5.0,61,0.00,,,0.00,,2013-04-05 04:42:00,
2013-04-05 00:52:00,40.0,29.0,30.03,South,188,0.0,3.0,65,0.00,,,0.00,,2013-04-05 04:52:00,
2013-04-05 01:02:00,39.0,30.0,30.02,South,182,0.0,3.0,69,0.00,,,0.00,,2013-04-05 05:02:00,
2013-04-05 01:13:00,39.0,30.0,30.02,South,182,0.0,3.0,69,0.00,,,0.00,,2013-04-05 05:13:00,
2013-04-05 01:22:00,39.0,31.0,30.01,South,183,2.0,4.0,73,0.00,,,0.00,,2013-04-05 05:22:00,
2013-04-05 01:32:00,38.0,32.0,30.01,SW,216,1.0,4.0,78,0.00,,,0.00,,2013-04-05 05:32:00,
2013-04-05 01:42:00,38.0,32.0,30.01,SW,216,1.0,4.0,78,0.00,,,0.00,,2013-04-05 05:42:00,
2013-04-05 01:53:00,38.0,33.0,30.00,SSW,192,1.0,3.0,81,0.00,,,0.00,,2013-04-05 05:53:00,
2013-04-05 02:02:00,38.0,33.0,29.99,SSW,208,1.0,3.0,81,0.00,,,0.00,,2013-04-05 06:02:00,
2013-04-05 02:12:00,38.0,33.0,29.99,SSW,208,1.0,3.0,81,0.00,,,0.00,,2013-04-05 06:12:00,
2013-04-05 02:22:00,37.0,32.0,29.98,SSW,202,0.0,0.0,82,0.00,,,0.00,,2013-04-05 06:22:00,
2013-04-05 02:32:00,37.0,32.0,29.98,SSW,196,0.0,0.0,83,0.00,,,0.00,,2013-04-05 06:32:00,
2013-04-05 02:42:00,37.0,32.0,29.98,SSW,196,0.0,0.0,83,0.00,,,0.00,,2013-04-05 06:42:00,
2013-04-05 02:52:00,37.0,33.0,29.97,SSW,197,0.0,0.0,84,0.00,,,0.00,,2013-04-05 06:52:00,
2013-04-05 03:03:00,37.0,33.0,29.96,SSW,197,0.0,0.0,84,0.00,,,0.00,,2013-04-05 07:03:00,
2013-04-05 03:12:00,37.0,33.0,29.96,SSW,197,0.0,0.0,84,0.00,,,0.00,,2013-04-05 07:12:00,
2013-04-05 03:22:00,37.0,33.0,29.95,SSW,197,0.0,0.0,84,0.00,,,0.00,,2013-04-05 07:22:00,
2013-04-05 03:32:00,37.0,33.0,29.94,SSW,197,0.0,0.0,85,0.00,,,0.00,,2013-04-05 07:32:00,
2013-04-05 03:42:00,37.0,33.0,29.94,SSW,197,0.0,0.0,85,0.00,,,0.00,,2013-04-05 07:42:00,
2013-04-05 03:53:00,37.0,33.0,29.94,SSW,197,0.0,0.0,86,0.00,,,0.00,,2013-04-05 07:53:00,
2013-04-05 04:03:00,36.0,32.0,29.94,SSW,197,0.0,0.0,86,0.00,,,0.00,,2013-04-05 08:03:00,
2013-04-05 04:13:00,36.0,32.0,29.94,SSW,197,0.0,0.0,86,0.00,,,0.00,,2013-04-05 08:13:00,
2013-04-05 04:32:00,37.0,34.0,29.94,SSW,197,0.0,0.0,87,0.00,,,0.00,,2013-04-05 08:32:00,
2013-04-05 04:43:00,37.0,34.0,29.94,SSW,197,0.0,0.0,87,0.00,,,0.00,,2013-04-05 08:43:00,
2013-04-05 04:52:00,37.0,34.0,29.94,SSW,197,0.0,0.0,87,0.00,,,0.00,,2013-04-05 08:52:00,
2013-04-05 05:02:00,36.0,33.0,29.95,SSW,197,0.0,0.0,88,0.00,,,0.00,,2013-04-05 09:02:00,
2013-04-05 05:12:00,36.0,33.0,29.95,SSW,197,0.0,0.0,88,0.00,,,0.00,,2013-04-05 09:12:00,
2013-04-05 05:22:00,36.0,33.0,29.94,SSW,197,0.0,0.0,88,0.00,,,0.00,,2013-04-05 09:22:00,
2013-04-05 05:33:00,36.0,33.0,29.94,SSW,197,0.0,0.0,88,0.00,,,0.00,,2013-04-05 09:33:00,
2013-04-05 05:43:00,36.0,33.0,29.94,SSW,197,0.0,0.0,88,0.00,,,0.00,,2013-04-05 09:43:00,
2013-04-05 05:53:00,35.0,32.0,29.94,SSW,197,0.0,0.0,88,0.00,,,0.00,,2013-04-05 09:53:00,
2013-04-05 06:03:00,35.0,32.0,29.94,SSW,197,0.0,0.0,89,0.00,,,0.00,,2013-04-05 10:03:00,
2013-04-05 06:13:00,35.0,32.0,29.94,SSW,197,0.0,0.0,89,0.00,,,0.00,,2013-04-05 10:13:00,
2013-04-05 06:23:00,34.0,31.0,29.95,SSW,197,0.0,0.0,90,0.00,,,0.00,,2013-04-05 10:23:00,
2013-04-05 06:33:00,34.0,32.0,29.95,SSW,197,0.0,0.0,91,0.00,,,0.00,,2013-04-05 10:33:00,
2013-04-05 06:43:00,34.0,32.0,29.95,SSW,197,0.0,0.0,91,0.00,,,0.00,,2013-04-05 10:43:00,
2013-04-05 06:53:00,33.0,31.0,29.95,SSW,197,0.0,0.0,91,0.00,,,0.00,,2013-04-05 10:53:00,
2013-04-05 07:03:00,33.0,31.0,29.95,SSW,197,0.0,0.0,92,0.00,,,0.00,,2013-04-05 11:03:00,
2013-04-05 07:13:00,33.0,31.0,29.95,SSW,197,0.0,0.0,92,0.00,,,0.00,,2013-04-05 11:13:00,
2013-04-05 07:22:00,33.0,31.0,29.95,SSW,197,0.0,0.0,93,0.00,,,0.00,,2013-04-05 11:22:00,
2013-04-05 07:33:00,34.0,32.0,29.95,SSW,197,0.0,0.0,93,0.00,,,0.00,,2013-04-05 11:33:00,
2013-04-05 07:42:00,34.0,32.0,29.95,SSW,197,0.0,0.0,93,0.00,,,0.00,,2013-04-05 11:42:00,
2013-04-05 07:52:00,34.0,32.0,29.95,SSW,197,0.0,0.0,94,0.00,,,0.00,,2013-04-05 11:52:00,
2013-04-05 08:02:00,35.0,33.0,29.94,SSW,197,0.0,0.0,94,0.00,,,0.00,,2013-04-05 12:02:00,
2013-04-05 08:12:00,35.0,33.0,29.94,SSW,197,0.0,0.0,94,0.00,,,0.00,,2013-04-05 12:12:00,
2013-04-05 08:22:00,36.0,34.0,29.94,SSW,197,0.0,0.0,94,0.00,,,0.00,,2013-04-05 12:22:00,
2013-04-05 08:32:00,37.0,35.0,29.94,SSW,210,0.0,0.0,92,0.00,,,0.00,,2013-04-05 12:32:00,
2013-04-05 08:42:00,37.0,35.0,29.94,SSW,210,0.0,0.0,92,0.00,,,0.00,,2013-04-05 12:42:00,
2013-04-05 08:52:00,38.0,35.0,29.94,SSW,209,0.0,0.0,90,0.00,,,0.00,,2013-04-05 12:52:00,
2013-04-05 09:02:00,39.0,36.0,29.94,West,275,1.0,3.0,88,0.00,,,0.00,,2013-04-05 13:02:00,
2013-04-05 09:12:00,39.0,36.0,29.94,West,275,1.0,3.0,88,0.00,,,0.00,,2013-04-05 13:12:00,
2013-04-05 09:23:00,40.0,36.0,29.93,WSW,257,0.0,3.0,85,0.00,,,0.00,,2013-04-05 13:23:00,
2013-04-05 09:32:00,41.0,37.0,29.92,SW,236,0.0,2.0,84,0.00,,,0.00,,2013-04-05 13:32:00,
2013-04-05 09:42:00,41.0,37.0,29.92,SW,236,0.0,2.0,84,0.00,,,0.00,,2013-04-05 13:42:00,
2013-04-05 09:53:00,42.0,36.0,29.92,West,261,0.0,3.0,80,0.00,,,0.00,,2013-04-05 13:53:00,
2013-04-05 10:03:00,46.0,37.0,29.91,North,360,2.0,5.0,70,0.00,,,0.00,,2013-04-05 14:03:00,
2013-04-05 10:12:00,46.0,37.0,29.91,North,360,2.0,5.0,70,0.00,,,0.00,,2013-04-05 14:12:00,
2013-04-05 10:23:00,49.0,34.0,29.92,NW,308,1.0,7.0,57,0.00,,,0.00,,2013-04-05 14:23:00,
2013-04-05 10:37:00,50.0,34.0,29.92,SSW,211,0.0,3.0,53,0.00,,,0.00,,2013-04-05 14:37:00,
2013-04-05 10:43:00,50.0,34.0,29.92,SSW,211,0.0,3.0,53,0.00,,,0.00,,2013-04-05 14:43:00,
2013-04-05 10:54:00,50.0,34.0,29.92,ENE,64,0.0,4.0,53,0.00,,,0.00,,2013-04-05 14:54:00,
2013-04-05 11:02:00,51.0,32.0,29.92,NNW,346,0.0,3.0,48,0.00,,,0.00,,2013-04-05 15:02:00,
2013-04-05 11:13:00,51.0,32.0,29.92,NNW,346,0.0,3.0,48,0.00,,,0.00,,2013-04-05 15:13:00,
2013-04-05 11:23:00,53.0,32.0,29.92,ENE,69,1.0,2.0,45,0.00,,,0.00,,2013-04-05 15:23:00,
2013-04-05 11:33:00,54.0,33.0,29.92,NE,55,3.0,6.0,44,0.00,,,0.00,,2013-04-05 15:33:00,
2013-04-05 11:43:00,54.0,33.0,29.92,NE,55,3.0,6.0,44,0.00,,,0.00,,2013-04-05 15:43:00,
2013-04-05 11:54:00,55.0,28.0,29.92,NW,305,4.0,11.0,35,0.00,,,0.00,,2013-04-05 15:54:00,
2013-04-05 12:03:00,57.0,28.0,29.92,North,9,4.0,12.0,33,0.00,,,0.00,,2013-04-05 16:03:00,
2013-04-05 12:14:00,57.0,28.0,29.92,North,9,4.0,12.0,33,0.00,,,0.00,,2013-04-05 16:14:00,
2013-04-05 12:23:00,57.0,30.0,29.91,North,350,2.0,12.0,36,0.00,,,0.00,,2013-04-05 16:23:00,
2013-04-05 12:33:00,58.0,29.0,29.91,NW,310,1.0,12.0,33,0.00,,,0.00,,2013-04-05 16:33:00,
2013-04-05 12:42:00,58.0,29.0,29.91,NW,310,1.0,12.0,33,0.00,,,0.00,,2013-04-05 16:42:00,
2013-04-05 12:53:00,59.0,31.0,29.90,NNW,344,4.0,10.0,35,0.00,,,0.00,,2013-04-05 16:53:00,
2013-04-05 13:03:00,60.0,32.0,29.89,WSW,248,3.0,8.0,35,0.00,,,0.00,,2013-04-05 17:03:00,
2013-04-05 13:13:00,60.0,32.0,29.89,WSW,248,3.0,8.0,35,0.00,,,0.00,,2013-04-05 17:13:00,
2013-04-05 13:23:00,60.0,28.0,29.87,North,355,5.0,12.0,29,0.00,,,0.00,,2013-04-05 17:23:00,
2013-04-05 13:33:00,61.0,30.0,29.87,WNW,282,2.0,7.0,31,0.00,,,0.00,,2013-04-05 17:33:00,
2013-04-05 13:45:00,61.0,30.0,29.87,WNW,282,2.0,7.0,31,0.00,,,0.00,,2013-04-05 17:45:00,
2013-04-05 13:53:00,61.0,27.0,29.85,North,9,5.0,9.0,27,0.00,,,0.00,,2013-04-05 17:53:00,
2013-04-05 14:02:00,62.0,30.0,29.85,NW,319,1.0,11.0,30,0.00,,,0.00,,2013-04-05 18:02:00,
2013-04-05 14:13:00,62.0,30.0,29.85,NW,319,1.0,11.0,30,0.00,,,0.00,,2013-04-05 18:13:00,
2013-04-05 14:23:00,62.0,28.0,29.85,NNE,25,4.0,9.0,27,0.00,,,0.00,,2013-04-05 18:23:00,
2013-04-05 14:33:00,63.0,30.0,29.84,North,351,2.0,7.0,29,0.00,,,0.00,,2013-04-05 18:33:00,
2013-04-05 14:43:00,63.0,30.0,29.84,North,351,2.0,7.0,29,0.00,,,0.00,,2013-04-05 18:43:00,
2013-04-05 14:53:00,64.0,32.0,29.83,West,267,3.0,9.0,30,0.00,,,0.00,,2013-04-05 18:53:00,
2013-04-05 15:02:00,64.0,33.0,29.83,NW,311,2.0,12.0,31,0.00,,,0.00,,2013-04-05 19:02:00,
2013-04-05 15:13:00,64.0,33.0,29.83,NW,311,2.0,12.0,31,0.00,,,0.00,,2013-04-05 19:13:00,
2013-04-05 15:23:00,65.0,34.0,29.83,NE,36,1.0,7.0,32,0.00,,,0.00,,2013-04-05 19:23:00,
2013-04-05 15:33:00,65.0,34.0,29.83,NE,36,1.0,7.0,32,0.00,,,0.00,,2013-04-05 19:33:00,
2013-04-05 15:42:00,65.0,34.0,29.83,NE,36,1.0,7.0,32,0.00,,,0.00,,2013-04-05 19:42:00,
2013-04-05 15:53:00,65.0,34.0,29.83,NE,36,1.0,7.0,32,0.00,,,0.00,,2013-04-05 19:53:00,
2013-04-05 16:02:00,65.0,34.0,29.83,NE,36,1.0,7.0,32,0.00,,,0.00,,2013-04-05 20:02:00,
2013-04-05 16:22:00,64.0,30.0,29.83,WSW,252,3.0,12.0,28,0.00,,,0.00,,2013-04-05 20:22:00,
2013-04-05 16:33:00,64.0,30.0,29.83,WSW,252,3.0,12.0,28,0.00,,,0.00,,2013-04-05 20:33:00,
2013-04-05 16:42:00,64.0,30.0,29.83,WSW,252,3.0,12.0,28,0.00,,,0.00,,2013-04-05 20:42:00,
2013-04-05 16:52:00,63.0,32.0,29.84,NNE,20,3.0,14.0,31,0.00,,,0.00,,2013-04-05 20:52:00,
2013-04-05 17:03:00,63.0,32.0,29.84,North,360,2.0,10.0,31,0.00,,,0.00,,2013-04-05 21:03:00,
2013-04-05 17:13:00,63.0,32.0,29.84,North,360,2.0,10.0,31,0.00,,,0.00,,2013-04-05 21:13:00,
2013-04-05 17:24:00,61.0,29.0,29.85,NNW,342,5.0,14.0,30,0.00,,,0.00,,2013-04-05 21:24:00,
2013-04-05 17:33:00,62.0,30.0,29.85,SW,217,3.0,10.0,30,0.00,,,0.00,,2013-04-05 21:33:00,
2013-04-05 17:43:00,62.0,30.0,29.85,SW,217,3.0,10.0,30,0.00,,,0.00,,2013-04-05 21:43:00,
2013-04-05 17:55:00,61.0,29.0,29.86,North,11,4.0,12.0,29,0.00,,,0.00,,2013-04-05 21:55:00,
2013-04-05 18:03:00,61.0,29.0,29.87,NNW,327,2.0,9.0,30,0.00,,,0.00,,2013-04-05 22:03:00,
2013-04-05 18:13:00,61.0,29.0,29.87,NNW,327,2.0,9.0,30,0.00,,,0.00,,2013-04-05 22:13:00,
2013-04-05 18:23:00,60.0,29.0,29.88,NNW,328,2.0,8.0,31,0.00,,,0.00,,2013-04-05 22:23:00,
2013-04-05 18:33:00,60.0,28.0,29.89,North,360,2.0,7.0,30,0.00,,,0.00,,2013-04-05 22:33:00,
2013-04-05 18:43:00,60.0,28.0,29.89,North,360,2.0,7.0,30,0.00,,,0.00,,2013-04-05 22:43:00,
2013-04-05 18:53:00,59.0,28.0,29.90,NNW,327,1.0,5.0,31,0.00,,,0.00,,2013-04-05 22:53:00,
2013-04-05 19:03:00,58.0,28.0,29.91,North,355,1.0,12.0,31,0.00,,,0.00,,2013-04-05 23:03:00,
2013-04-05 19:13:00,58.0,28.0,29.91,North,355,1.0,12.0,31,0.00,,,0.00,,2013-04-05 23:13:00,
2013-04-05 19:23:00,57.0,27.0,29.92,North,349,1.0,7.0,32,0.00,,,0.00,,2013-04-05 23:23:00,
2013-04-05 19:33:00,56.0,27.0,29.92,NNW,346,1.0,5.0,33,0.00,,,0.00,,2013-04-05 23:33:00,
2013-04-05 19:42:00,56.0,27.0,29.92,NNW,346,1.0,5.0,33,0.00,,,0.00,,2013-04-05 23:42:00,
2013-04-05 19:53:00,55.0,28.0,29.93,NE,43,0.0,4.0,35,0.00,,,0.00,,2013-04-05 23:53:00,
2013-04-05 20:02:00,54.0,26.0,29.94,NNW,335,1.0,3.0,34,0.00,,,0.00,,2013-04-06 00:02:00,
2013-04-05 20:13:00,54.0,26.0,29.94,NNW,335,1.0,3.0,34,0.00,,,0.00,,2013-04-06 00:13:00,
2013-04-05 20:23:00,53.0,26.0,29.95,NNW,341,0.0,5.0,35,0.00,,,0.00,,2013-04-06 00:23:00,
2013-04-05 20:33:00,52.0,25.0,29.96,North,360,0.0,3.0,35,0.00,,,0.00,,2013-04-06 00:33:00,
2013-04-05 20:42:00,52.0,25.0,29.96,North,360,0.0,3.0,35,0.00,,,0.00,,2013-04-06 00:42:00,
2013-04-05 20:52:00,51.0,23.0,29.97,NNW,338,1.0,5.0,33,0.00,,,0.00,,2013-04-06 00:52:00,
2013-04-05 21:02:00,51.0,23.0,29.98,North,360,3.0,10.0,33,0.00,,,0.00,,2013-04-06 01:02:00,
2013-04-05 21:13:00,51.0,23.0,29.98,North,360,3.0,10.0,33,0.00,,,0.00,,2013-04-06 01:13:00,
2013-04-05 21:23:00,51.0,22.0,30.00,North,360,0.0,8.0,32,0.00,,,0.00,,2013-04-06 01:23:00,
2013-04-05 21:33:00,50.0,22.0,30.01,North,360,0.0,4.0,33,0.00,,,0.00,,2013-04-06 01:33:00,
2013-04-05 21:43:00,50.0,22.0,30.01,North,360,0.0,4.0,33,0.00,,,0.00,,2013-04-06 01:43:00,
2013-04-05 21:53:00,49.0,22.0,30.02,NNE,29,0.0,1.0,34,0.00,,,0.00,,2013-04-06 01:53:00,
2013-04-05 22:02:00,49.0,22.0,30.03,North,10,0.0,2.0,34,0.00,,,0.00,,2013-04-06 02:02:00,
2013-04-05 22:12:00,49.0,22.0,30.03,North,10,0.0,2.0,34,0.00,,,0.00,,2013-04-06 02:12:00,
2013-04-05 22:23:00,48.0,22.0,30.03,North,360,3.0,6.0,35,0.00,,,0.00,,2013-04-06 02:23:00,
2013-04-05 22:32:00,48.0,22.0,30.04,North,350,3.0,7.0,36,0.00,,,0.00,,2013-04-06 02:32:00,
2013-04-05 22:42:00,48.0,22.0,30.04,North,350,3.0,7.0,36,0.00,,,0.00,,2013-04-06 02:42:00,
2013-04-05 22:53:00,47.0,22.0,30.05,North,355,0.0,4.0,37,0.00,,,0.00,,2013-04-06 02:53:00,
2013-04-05 23:03:00,47.0,22.0,30.05,NNW,342,3.0,6.0,37,0.00,,,0.00,,2013-04-06 03:03:00,
2013-04-05 23:13:00,47.0,22.0,30.05,NNW,342,3.0,6.0,37,0.00,,,0.00,,2013-04-06 03:13:00,
2013-04-05 23:23:00,46.0,22.0,30.05,NE,54,4.0,13.0,38,0.00,,,0.00,,2013-04-06 03:23:00,
2013-04-05 23:34:00,46.0,22.0,30.06,North,360,0.0,11.0,38,0.00,,,0.00,,2013-04-06 03:34:00,
2013-04-05 23:43:00,46.0,22.0,30.06,North,360,0.0,11.0,38,0.00,,,0.00,,2013-04-06 03:43:00,
2013-04-05 23:55:00,45.0,22.0,30.06,North,10,0.0,3.0,39,0.00,,,0.00,,2013-04-06 03:55:00,